Temp
-12 -12 -12 -12 -12 -12 -12 -12 -12 -12 -12 -12 -12 -12 -12 -12 -12 -12 -12 -12 -12 -12 -12 -12 -12 -12 -12 -12 -12 -12 -13 -13 -13 -13 -13 -13 -13 -13 -14 -14 -14 -14
-12 -12 -12 -12 -12 -12 -12 -12 -12 -12 -12 -12 -12 -12 -12 -12 -12 -12 -12 -12 -12 -12 -12 -12 -12 -12 -12 -12 -12 -13 -13 -13 -13 -13 -13 -13 -13 -13 -14 -14 -14 -14
-12 -12 -12 -12 -12 -12 -12 -12 -12 -12 -12 -12 -12 -12 -12 -12 -12 -12 -12 -12 -12 -12 -13 -13 -13 -13 -13 -13 -13 -13 -13 -13 -13 -13 -13 -13 -13 -14 -14 -14 -14 -15
-12 -12 -12 -12 -12 -12 -12 -12 -12 -12 -13 -13 -13 -13 -13 -13 -13 -13 -13 -13 -13 -13 -13 -13 -13 -13 -13 -13 -13 -13 -13 -13 -13 -13 -13 -13 -13 -14 -14 -14 -14 -15
-12 -12 -12 -12 -12 -13 -13 -13 -13 -13 -13 -13 -13 -13 -13 -13 -13 -13 -13 -13 -13 -13 -13 -13 -13 -13 -13 -13 -13 -13 -13 -13 -13 -13 -13 -13 -14 -14 -14 -14 -14 -15
-13 -13 -13 -13 -13 -13 -13 -13 -13 -13 -13 -13 -13 -13 -13 -13 -13 -13 -13 -13 -13 -13 -13 -13 -13 -13 -13 -13 -13 -13 -13 -13 -13 -13 -13 -13 -14 -14 -14 -15 -15 -15
-13 -13 -13 -13 -13 -13 -13 -13 -13 -13 -13 -13 -13 -13 -13 -13 -13 -13 -13 -13 -13 -13 -13 -13 -13 -13 -13 -13 -13 -13 -13 -13 -13 -13 -14 -14 -14 -14 -15 -15 -15 -16
-13 -13 -13 -13 -13 -13 -13 -13 -13 -13 -13 -13 -13 -13 -13 -13 -13 -13 -13 -13 -13 -13 -13 -13 -13 -13 -13 -13 -13 -13 -13 -13 -14 -14 -14 -14 -15 -15 -15 -16 -16 -16
-13 -13 -13 -13 -13 -13 -13 -13 -13 -13 -13 -13 -13 -13 -13 -13 -13 -13 -13 -13 -13 -13 -13 -13 -13 -13 -13 -13 -13 -14 -14 -14 -14 -14 -15 -15 -15 -16 -16 -16 -16 -16
-13 -13 -13 -13 -13 -13 -13 -13 -13 -13 -13 -13 -13 -13 -13 -13 -14 -14 -14 -14 -14 -14 -14 -14 -14 -14 -14 -14 -14 -14 -14 -14 -15 -15 -15 -16 -16 -16 -16 -16 -16 -16
-13 -13 -13 -13 -13 -13 -13 -14 -14 -14 -14 -14 -14 -14 -14 -14 -14 -14 -14 -14 -14 -14 -14 -14 -14 -14 -14 -14 -15 -15 -15 -15 -15 -16 -16 -16 -16 -16 -16 -16 -16 -16
-14 -14 -14 -14 -14 -14 -14 -14 -14 -14 -14 -14 -14 -14 -14 -14 -14 -14 -14 -14 -14 -14 -14 -14 -15 -15 -15 -15 -15 -16 -16 -16 -16 -16 -17 -17 -17 -17 -17 -17 -17 -17
-14 -14 -14 -14 -14 -14 -14 -14 -14 -14 -14 -14 -14 -14 -14 -14 -14 -14 -14 -14 -15 -15 -15 -15 -15 -15 -16 -16 -16 -16 -16 -17 -17 -17 -17 -17 -17 -17 -17 -17 -17 -17
-14 -14 -14 -14 -14 -14 -14 -14 -14 -14 -14 -14 -14 -14 -14 -14 -14 -15 -15 -15 -15 -15 -15 -16 -16 -16 -16 -16 -17 -17 -17 -17 -17 -17 -17 -17 -17 -17 -17 -17 -17 -17
-14 -14 -14 -14 -14 -14 -14 -14 -14 -14 -14 -14 -14 -14 -15 -15 -15 -15 -15 -16 -16 -16 -16 -16 -16 -16 -17 -17 -17 -17 -17 -17 -17 -17 -17 -17 -17 -17 -17 -17 -17 -17
-14 -14 -14 -14 -14 -14 -14 -14 -14 -14 -15 -15 -15 -15 -15 -15 -16 -16 -16 -16 -16 -16 -16 -17 -17 -17 -17 -17 -17 -17 -17 -17 -17 -17 -18 -17 -17 -17 -17 -18 -18 -18
-14 -14 -15 -15 -15 -15 -15 -15 -15 -15 -15 -15 -15 -16 -16 -16 -16 -16 -16 -16 -17 -17 -17 -17 -17 -17 -17 -17 -17 -17 -17 -17 -17 -18 -18 -18 -18 -18 -18 -18 -18 -18
-15 -15 -15 -15 -15 -15 -15 -15 -15 -16 -16 -16 -16 -16 -16 -16 -16 -17 -17 -17 -17 -17 -17 -17 -18 -18 -18 -18 -18 -18 -18 -18 -17 -17 -17 -17 -18 -18 -18 -18 -18 -18
-15 -15 -15 -15 -15 -16 -16 -16 -16 -16 -16 -16 -16 -17 -17 -17 -17 -17 -17 -17 -17 -17 -18 -18 -18 -18 -18 -18 -18 -18 -18 -18 -18 -17 -17 -17 -17 -18 -18 -18 -18 -18
-16 -16 -16 -16 -16 -16 -16 -16 -16 -16 -17 -17 -17 -17 -17 -17 -17 -17 -17 -17 -17 -17 -18 -18 -18 -18 -18 -18 -18 -18 -18 -18 -18 -18 -18 -18 -18 -18 -18 -18 -18 -18
-16 -16 -16 -16 -16 -16 -17 -17 -17 -17 -17 -17 -17 -17 -17 -17 -17 -17 -17 -17 -18 -18 -18 -18 -18 -18 -18 -18 -18 -18 -18 -18 -18 -18 -18 -18 -18 -18 -19 -19 -19 -19
-16 -17 -17 -17 -17 -17 -17 -17 -17 -17 -17 -17 -17 -17 -17 -17 -17 -17 -18 -18 -18 -18 -18 -18 -19 -19 -19 -19 -19 -19 -19 -19 -19 -19 -19 -19 -19 -19 -19 -19 -19 -19
-17 -17 -17 -17 -17 -17 -17 -17 -17 -17 -17 -17 -17 -17 -17 -17 -18 -18 -18 -18 -18 -18 -18 -19 -19 -19 -19 -19 -19 -19 -19 -19 -19 -19 -19 -19 -19 -19 -19 -19 -20 -20
-18 -18 -18 -18 -18 -18 -18 -18 -17 -17 -17 -17 -17 -17 -18 -18 -18 -18 -18 -18 -19 -19 -19 -19 -19 -20 -20 -20 -20 -20 -20 -20 -20 -20 -20 -20 -20 -20 -20 -20 -20 -20
-18 -18 -18 -18 -18 -18 -18 -18 -18 -18 -18 -18 -18 -18 -18 -18 -18 -18 -18 -19 -19 -19 -19 -19 -20 -20 -20 -20 -20 -20 -20 -20 -20 -20 -20 -20 -20 -20 -20 -20 -21 -21
-18 -18 -18 -18 -18 -18 -18 -18 -18 -18 -18 -18 -18 -18 -18 -18 -18 -18 -19 -19 -19 -20 -20 -20 -20 -20 -20 -20 -21 -21 -20 -20 -20 -20 -21 -21 -21 -21 -21 -21 -21 -21
Height
5849 5849 5848 5847 5847 5846 5845 5844 5843 5842 5840 5839 5838 5836 5835 5834 5833 5831 5829 5827 5826 5824 5822 5820 5818 5816 5814 5812 5809 5807 5805 5802 5799 5796 5793 5790 5787 5784 5780 5777 5774 5771
5844 5844 5843 5843 5842 5841 5840 5839 5838 5837 5835 5834 5833 5831 5830 5829 5827 5826 5824 5822 5820 5818 5816 5814 5812 5811 5809 5807 5804 5802 5799 5796 5793 5790 5787 5784 5781 5777 5774 5770 5767 5764
5840 5839 5839 5838 5837 5836 5835 5834 5833 5832 5830 5829 5828 5826 5825 5823 5822 5820 5819 5817 5815 5813 5811 5809 5807 5805 5803 5801 5798 5796 5793 5790 5787 5784 5781 5778 5774 5771 5767 5764 5761 5758
5835 5834 5834 5833 5832 5831 5830 5829 5828 5826 5825 5824 5822 5821 5819 5818 5816 5814 5813 5811 5809 5807 5805 5803 5801 5799 5797 5795 5792 5789 5787 5784 5781 5778 5775 5771 5767 5764 5761 5757 5755 5752
5830 5829 5829 5828 5827 5826 5825 5823 5822 5821 5820 5818 5817 5815 5814 5812 5810 5809 5807 5805 5803 5801 5799 5797 5795 5793 5791 5788 5786 5783 5780 5777 5774 5771 5768 5765 5761 5758 5754 5751 5749 5746
5825 5824 5824 5823 5822 5820 5819 5818 5817 5815 5814 5813 5811 5810 5808 5806 5804 5803 5801 5799 5797 5795 5793 5790 5788 5785 5783 5781 5779 5776 5773 5770 5767 5764 5761 5758 5754 5751 5748 5745 5742 5740
5820 5819 5819 5817 5816 5815 5814 5813 5811 5810 5808 5807 5805 5804 5802 5800 5798 5796 5794 5792 5790 5788 5786 5783 5781 5778 5776 5774 5771 5769 5766 5763 5760 5757 5754 5751 5748 5745 5741 5739 5736 5734
5815 5814 5813 5812 5811 5810 5808 5807 5805 5804 5802 5801 5799 5797 5796 5793 5792 5790 5788 5785 5783 5781 5778 5776 5774 5771 5769 5766 5764 5761 5758 5755 5752 5750 5747 5744 5741 5738 5735 5733 5731 5728
5810 5809 5808 5806 5805 5804 5802 5801 5799 5797 5796 5794 5793 5791 5789 5787 5784 5782 5780 5778 5776 5773 5771 5768 5766 5764 5761 5759 5756 5754 5751 5748 5745 5743 5740 5738 5735 5732 5729 5727 5724 5722
5804 5803 5802 5801 5799 5798 5796 5794 5793 5791 5790 5788 5786 5784 5782 5780 5777 5775 5773 5770 5768 5765 5763 5761 5758 5756 5753 5751 5749 5746 5744 5741 5738 5735 5733 5731 5728 5725 5723 5720 5718 5715
5799 5797 5796 5794 5793 5791 5790 5788 5787 5785 5783 5781 5779 5777 5775 5773 5770 5768 5765 5763 5760 5758 5755 5753 5751 5748 5746 5743 5741 5739 5736 5733 5731 5728 5726 5723 5721 5719 5716 5714 5711 5709
5792 5791 5789 5788 5787 5785 5784 5782 5780 5778 5776 5774 5772 5770 5768 5765 5763 5761 5758 5755 5753 5750 5748 5745 5743 5741 5738 5736 5733 5731 5728 5726 5724 5721 5719 5717 5714 5712 5709 5707 5705 5702
5785 5784 5783 5781 5780 5778 5777 5775 5773 5771 5769 5767 5765 5763 5760 5758 5756 5753 5750 5748 5745 5742 5739 5737 5735 5733 5730 5728 5726 5724 5721 5719 5717 5715 5712 5710 5708 5705 5702 5700 5697 5695
5778 5777 5776 5774 5773 5771 5770 5768 5766 5764 5762 5760 5757 5755 5753 5750 5748 5745 5743 5740 5737 5734 5731 5729 5727 5725 5723 5720 5718 5717 5715 5712 5710 5708 5706 5704 5701 5698 5696 5693 5690 5687
5772 5770 5769 5767 5766 5764 5762 5760 5758 5756 5754 5752 5750 5747 5745 5742 5740 5737 5734 5731 5729 5726 5723 5721 5719 5717 5715 5713 5711 5709 5707 5705 5703 5700 5698 5697 5694 5692 5689 5685 5682 5679
5765 5763 5761 5760 5758 5756 5754 5752 5750 5748 5746 5744 5742 5739 5737 5734 5732 5729 5726 5724 5721 5718 5715 5712 5710 5709 5707 5705 5703 5702 5700 5698 5695 5693 5690 5688 5686 5684 5681 5678 5674 5671
5757 5755 5754 5752 5750 5748 5746 5744 5742 5740 5738 5736 5734 5731 5729 5727 5724 5722 5719 5717 5713 5710 5707 5704 5702 5701 5698 5696 5695 5693 5692 5690 5687 5685 5682 5679 5677 5675 5673 5670 5666 5662
5749 5747 5746 5744 5742 5740 5738 5736 5734 5732 5730 5728 5726 5724 5722 5719 5717 5714 5712 5709 5706 5702 5699 5696 5693 5692 5690 5687 5686 5684 5683 5681 5679 5676 5674 5671 5667 5665 5662 5660 5656 5653
5741 5740 5738 5736 5734 5732 5730 5728 5726 5724 5722 5720 5718 5716 5714 5712 5709 5706 5704 5701 5699 5695 5691 5687 5685 5683 5681 5678 5676 5675 5673 5671 5669 5667 5664 5661 5658 5654 5651 5648 5644 5641
5733 5732 5730 5728 5726 5724 5723 5721 5719 5717 5715 5713 5711 5708 5706 5704 5701 5698 5695 5693 5690 5688 5684 5679 5676 5674 5671 5669 5666 5665 5662 5661 5659 5656 5654 5651 5646 5643 5639 5636 5632 5627
5725 5724 5722 5720 5718 5716 5715 5713 5711 5709 5707 5705 5703 5701 5698 5695 5692 5690 5687 5684 5681 5679 5676 5671 5667 5664 5661 5658 5655 5653 5651 5648 5646 5644 5641 5638 5634 5630 5626 5622 5618 5613
5717 5715 5713 5712 5710 5708 5707 5705 5703 5701 5699 5697 5694 5692 5689 5687 5684 5681 5678 5675 5672 5670 5667 5663 5657 5653 5650 5647 5643 5641 5639 5636 5633 5631 5628 5625 5622 5619 5614 5610 5605 5599
5709 5707 5705 5703 5702 5700 5699 5697 5695 5693 5691 5689 5686 5683 5680 5678 5675 5672 5669 5666 5663 5660 5657 5654 5648 5643 5639 5636 5632 5629 5627 5624 5621 5618 5616 5612 5610 5607 5603 5598 5594 5588
5701 5699 5697 5696 5694 5693 5691 5689 5687 5685 5682 5680 5677 5674 5671 5669 5666 5663 5659 5656 5654 5650 5647 5644 5640 5633 5628 5625 5622 5618 5615 5612 5609 5606 5603 5600 5597 5595 5592 5587 5581 5576
5693 5691 5690 5688 5686 5684 5683 5680 5678 5675 5673 5670 5668 5665 5662 5659 5657 5654 5651 5647 5644 5640 5636 5633 5630 5624 5618 5613 5611 5607 5603 5599 5596 5592 5589 5586 5583 5581 5579 5575 5569 5563
5685 5684 5681 5679 5677 5675 5673 5670 5668 5665 5662 5660 5657 5654 5652 5649 5647 5645 5642 5638 5634 5630 5626 5622 5618 5614 5608 5602 5598 5595 5591 5587 5583 5579 5574 5571 5569 5566 5563 5560 5556 5551
Wind_Speed
45 46 46 47 47 47 48 48 49 49 49 49 49 49 48 47 47 47 47 47 47 47 48 49 50 51 52 54 55 56 56 57 58 60 61 62 64 65 66 66 67 67
47 47 48 48 48 48 49 49 49 50 49 49 48 48 48 47 47 47 47 48 48 49 50 51 53 54 55 56 57 58 58 59 61 62 63 64 65 66 66 67 68 68
47 48 48 48 48 48 49 49 49 49 48 48 48 48 48 48 48 49 49 49 50 51 52 53 54 56 57 57 58 59 60 61 62 64 64 65 65 66 67 67 68 68
47 47 47 47 47 47 48 47 47 47 47 48 48 48 49 49 50 50 51 52 53 54 55 56 56 57 58 58 60 61 62 63 64 65 65 65 66 66 66 67 67 66
46 45 45 46 46 46 46 46 47 47 48 48 49 49 50 51 51 52 53 54 55 56 56 57 58 59 60 60 61 63 64 65 65 65 65 65 65 65 66 66 65 64
44 44 44 44 44 45 46 46 47 48 49 49 50 51 51 52 53 54 55 56 56 57 58 59 59 61 62 63 64 65 66 66 66 66 65 65 65 65 65 65 64 62
42 42 43 43 44 45 46 47 48 49 50 50 51 52 53 54 55 56 56 57 58 58 59 60 61 62 64 65 66 66 67 67 66 66 65 64 64 64 63 63 61 60
42 42 43 44 45 46 47 48 49 50 51 52 53 54 55 56 57 57 58 59 59 60 61 62 63 65 66 66 67 67 67 66 66 64 63 63 62 62 61 60 59 57
43 44 45 46 47 48 49 50 51 52 53 54 55 56 57 58 59 59 60 61 62 63 64 65 66 67 67 67 67 67 66 65 64 63 62 61 61 60 59 59 58 58
45 46 47 48 49 50 51 52 53 54 55 56 57 58 59 60 61 61 62 63 64 65 66 67 67 67 67 67 66 65 64 63 62 61 60 59 59 59 59 59 59 59
47 48 49 50 51 52 53 54 55 56 57 58 59 60 60 61 62 63 64 65 66 67 67 67 66 66 65 64 63 62 61 60 59 59 59 59 58 58 58 58 58 59
49 51 52 53 54 54 55 56 57 58 59 60 61 62 63 63 64 65 66 67 67 67 66 66 65 64 63 62 61 60 59 58 58 58 58 58 58 57 58 58 59 60
52 53 54 55 56 57 58 59 60 61 62 62 63 64 65 66 66 67 67 66 66 65 65 64 63 62 61 59 58 57 57 57 57 58 58 58 59 59 60 61 62 63
55 56 57 58 59 60 61 62 63 64 64 65 65 66 66 67 66 66 65 64 64 63 62 61 61 60 59 58 57 56 56 56 57 57 58 59 60 61 63 64 65 66
58 59 60 61 62 63 64 65 65 66 66 66 67 67 66 65 64 63 62 62 61 61 61 60 59 58 58 57 56 56 56 56 57 58 59 60 62 64 66 68 69 69
61 62 62 63 64 65 65 66 66 67 67 67 66 65 64 63 62 61 61 61 61 61 60 60 59 59 59 59 58 58 58 59 60 62 63 65 66 67 69 70 71 72
62 63 64 64 65 65 65 65 66 66 65 65 64 62 62 61 61 61 61 61 61 61 61 61 61 61 62 62 63 63 63 64 66 67 69 71 72 72 73 73 74 74
63 63 64 64 64 65 65 65 65 64 63 62 62 61 61 61 61 61 62 62 63 63 64 64 64 64 65 66 67 68 69 69 71 72 74 75 76 76 76 77 77 79
63 64 64 65 65 65 65 65 64 63 62 62 61 61 62 62 63 64 64 65 65 65 65 66 67 68 68 69 70 71 72 73 74 75 76 77 78 79 80 81 82 83
64 64 64 65 65 65 64 63 63 62 62 62 62 63 64 65 66 67 68 67 67 67 67 68 70 71 71 73 74 74 75 76 77 78 79 80 81 83 84 85 86 87
64 64 64 64 64 63 62 62 61 61 62 63 64 66 67 68 69 69 69 69 69 69 69 71 72 74 75 76 77 78 79 80 81 82 83 84 85 86 87 88 90 91
64 64 63 63 62 62 61 62 62 63 64 66 68 69 70 70 70 70 70 70 71 71 72 73 75 77 78 80 81 82 83 84 85 86 87 87 88 89 90 91 92 93
63 62 62 61 61 61 62 63 65 66 68 70 71 71 71 71 71 71 72 72 73 74 75 76 78 80 81 82 84 85 85 86 87 88 89 90 91 91 92 93 93 94
61 61 61 61 62 63 65 66 68 70 71 72 72 72 72 72 72 73 74 75 75 76 77 79 80 82 84 84 85 86 88 89 90 91 91 92 92 93 93 94 94 95
60 61 62 63 65 66 68 70 71 72 73 73 73 73 74 74 75 75 76 77 78 79 80 81 83 84 85 86 87 88 89 90 91 92 93 94 94 94 95 95 96 97
61 63 65 67 69 70 72 73 74 74 75 75 75 76 76 77 77 78 78 79 80 81 83 84 85 85 87 88 89 89 91 92 93 94 96 97 97 97 98 98 99 100
Wind_Direction
274 275 277 279 281 282 283 283 284 285 287 288 289 290 291 292 293 293 294 294 295 295 297 298 299 300 302 303 303 304 304 305 305 306 306 306 306 305 304 304 304 304
275 276 277 279 279 281 281 282 284 285 287 288 288 289 290 291 291 292 292 293 294 296 297 298 299 300 301 301 302 303 304 304 305 305 306 305 304 304 303 303 303 303
274 275 276 278 279 280 282 283 285 286 287 287 288 289 290 290 291 292 292 294 295 296 297 298 299 300 300 301 301 302 303 304 304 305 304 304 303 302 302 301 301 301
273 274 276 278 280 281 283 284 285 285 286 287 288 289 290 290 291 293 294 295 296 297 297 298 298 299 299 300 301 302 303 303 303 303 303 302 301 300 300 299 299 299
274 276 277 279 280 281 282 283 284 284 286 287 288 289 290 292 293 294 295 296 296 297 297 297 298 299 299 300 301 302 302 302 302 302 301 300 299 298 297 297 297 297
276 277 278 279 280 281 281 282 284 285 287 288 289 290 291 293 294 295 295 296 296 296 297 298 299 299 300 301 301 301 301 301 301 300 300 299 297 296 295 295 295 295
277 278 278 279 280 281 282 284 285 287 288 289 290 291 292 293 294 295 295 296 296 297 298 298 299 300 300 301 301 301 301 301 300 300 298 297 295 294 294 293 293 293
278 278 279 281 282 283 284 285 286 287 288 289 291 292 293 293 294 295 295 296 297 297 298 299 299 300 300 300 301 301 300 300 299 298 297 295 294 293 292 292 291 291
279 280 281 282 283 284 285 286 287 288 289 290 292 292 293 293 294 295 296 297 298 298 299 299 300 300 300 300 300 299 299 298 297 296 294 293 292 291 290 290 290 290
280 281 282 283 284 285 286 287 288 289 290 291 292 293 293 294 295 296 297 298 298 299 299 299 299 299 299 299 299 298 297 296 295 294 292 291 290 290 289 289 290 291
281 281 282 283 284 285 287 288 289 290 291 292 293 294 294 295 296 297 297 298 298 298 298 299 298 298 298 298 297 297 296 294 293 292 291 290 290 290 290 290 291 292
282 283 283 284 286 287 288 288 289 290 291 292 293 294 295 295 296 297 297 298 298 298 298 298 298 298 297 297 296 295 294 293 292 291 290 290 290 290 290 291 292 293
283 284 285 286 287 287 288 289 290 291 292 292 293 294 295 296 296 297 297 298 298 297 297 297 297 297 297 296 295 294 292 291 290 289 289 289 289 290 291 292 293 294
284 285 286 287 287 288 289 290 290 291 292 293 294 295 295 296 297 297 297 297 297 296 297 297 297 296 296 294 293 292 291 290 289 289 289 289 289 290 291 292 293 293
285 286 287 288 288 289 290 290 291 292 293 294 295 296 296 296 297 296 296 296 297 297 297 297 297 296 295 293 292 291 290 290 290 289 289 290 290 291 292 292 292 292
286 287 287 288 289 289 290 290 291 292 293 294 295 296 296 296 296 296 297 297 298 298 298 298 297 296 294 293 292 291 290 290 290 291 292 292 293 293 293 293 293 292
286 287 288 288 289 289 290 291 293 294 295 295 296 296 296 296 296 297 297 298 299 299 299 298 297 296 295 293 292 292 291 291 291 292 293 294 294 295 294 294 293 293
287 287 288 289 290 291 292 293 294 295 295 295 295 295 296 296 297 298 299 299 299 299 298 297 296 295 294 293 293 292 292 292 292 292 293 294 294 295 294 294 293 293
287 288 289 290 291 292 293 294 294 294 294 295 295 296 297 297 298 299 299 299 299 299 298 296 296 295 294 294 293 293 293 293 293 293 294 294 294 294 294 294 293 293
288 289 290 291 292 292 293 293 293 293 294 295 296 297 297 298 299 299 299 299 299 298 298 296 296 295 295 295 294 294 294 294 294 294 295 294 294 294 294 294 294 293
289 290 290 291 291 292 292 292 293 294 295 296 297 297 298 298 298 298 298 298 298 298 297 296 296 296 296 296 296 296 296 296 296 296 296 295 295 295 295 295 295 294
289 290 290 290 290 291 291 292 294 295 296 297 297 297 297 297 298 298 298 298 298 298 298 298 297 297 297 297 297 297 297 297 297 296 296 296 296 296 296 296 295 295
289 289 289 289 290 291 292 293 294 295 296 297 297 297 297 297 297 298 298 298 298 299 299 299 298 297 297 297 296 296 296 296 296 296 296 296 296 296 296 296 295 295
287 287 288 289 290 291 292 293 294 295 296 296 297 297 297 297 298 298 299 299 299 299 299 298 297 297 296 296 296 296 296 296 296 296 296 296 296 296 296 296 296 295
286 287 288 289 290 292 293 294 295 296 296 297 297 297 298 298 298 299 299 300 299 299 298 298 297 297 297 297 296 296 296 296 296 296 296 296 296 296 296 296 296 296
286 288 290 291 292 293 294 295 296 297 297 297 298 298 298 299 299 300 300 299 299 299 298 298 298 297 297 296 296 296 296 296 297 297 297 297 297 297 297 297 297 297